Location: Namasale
(1.5000°N, 32.6167°E)
Time: 23:28:59
(UTC+00:00)

Tiros 1 - Pass Details

Date: 24 April 2021
Orbit: 630 x 664 km, 48.4° (Epoch: 07 May)

Event Time Altitude Azimuth Distance (km) Brightness Sun altitude
Exits shadow 01:20:10 14° 121° (ESE) 1,818 9.8 -35.4°
Drops below altitude 10° 01:22:00 10° 98° (E) 2,057 10.4 -35.0°
Sets 01:25:22 0° 73° (ENE) 2,958 11.6 -34.1°
